Estación Meteorológica de la Universidad de Murcia
Estación Meteorológica de la Universidad de Murcia
Universidad de Murcia
 

Velocidad y dirección del vientoVelocidad y dirección del viento

 

Velocidad: 37,08 km/h a las 14:47:00 del día 15/06/2021
Dirección del viento: 254,7 º W Rosa de los vientos a las 14:47:00 del día 15/06/2021

Nota:
N (entre 337,6º y 22,5º), NE (entre 22,6º y 67,5º), E (entre 67,6º y 112,5º), SE (entre 112,6º y 157,5º), S (entre 157,6º y 202,5º), SW (entre 202,6º y 247,5º), W (entre 247,5º y 292,5º) y NW (entre 292,6º y 337,5º)

||Velocidad últimos meses|| ----||Dirección del viento||


Velocidad

  • 1 - 37,08 km/h del día 15/06/2021
  • 2 - 32,4 km/h del día 14/06/2021
  • 3 - 35,28 km/h del día 13/06/2021
  • 4 - 42,48 km/h del día 12/06/2021
  • 5 - 36 km/h del día 11/06/2021
  • 6 - 34,2 km/h del día 10/06/2021
  • 7 - 30,6 km/h del día 09/06/2021
  • 8 - 29,16 km/h del día 08/06/2021
  • 9 - 25,2 km/h del día 07/06/2021
  • 10 - 39,24 km/h del día 06/06/2021
  • 11 - 45,72 km/h del día 05/06/2021
  • 12 - 23,76 km/h del día 04/06/2021
  • 13 - 30,6 km/h del día 03/06/2021
  • 14 - 36,36 km/h del día 02/06/2021
  • 15 - 28,08 km/h del día 01/06/2021
  • 16 - 20,16 km/h del día 31/05/2021
  • 17 - 30,96 km/h del día 30/05/2021
  • 18 - 27 km/h del día 29/05/2021
  • 19 - 27 km/h del día 28/05/2021
  • 20 - 29,16 km/h del día 27/05/2021
  • 21 - 30,6 km/h del día 26/05/2021
  • 22 - 37,8 km/h del día 25/05/2021
  • 23 - 27 km/h del día 24/05/2021
  • 24 - 37,44 km/h del día 23/05/2021
  • 25 - 39,6 km/h del día 22/05/2021
  • 26 - 28,08 km/h del día 21/05/2021
  • 27 - 28,8 km/h del día 20/05/2021
  • 28 - 42,84 km/h del día 19/05/2021
  • 29 - 24,84 km/h del día 18/05/2021
  • 30 - 44,28 km/h del día 17/05/2021
  • 31 - 31,32 km/h del día 16/05/2021
  • 32 - 25,92 km/h del día 15/05/2021
  • 33 - 39,6 km/h del día 14/05/2021
  • 34 - 38,88 km/h del día 13/05/2021
  • 35 - 36,36 km/h del día 12/05/2021
  • 36 - 38,52 km/h del día 11/05/2021
  • 37 - 30,24 km/h del día 10/05/2021
  • 38 - 47,52 km/h del día 09/05/2021
  • 39 - 34,2 km/h del día 08/05/2021
  • 40 - 36 km/h del día 07/05/2021
  • 41 - 27,36 km/h del día 06/05/2021
  • 42 - 28,08 km/h del día 05/05/2021
  • 43 - 32,04 km/h del día 04/05/2021
  • 44 - 36,36 km/h del día 03/05/2021
  • 45 - 37,44 km/h del día 02/05/2021
  • 46 - 28,08 km/h del día 01/05/2021
  • 47 - 31,32 km/h del día 30/04/2021
  • 48 - 27 km/h del día 29/04/2021
  • 49 - 28,8 km/h del día 28/04/2021
  • 50 - 65,16 km/h del día 27/04/2021
  • 51 - 37,44 km/h del día 26/04/2021
  • 52 - 30,96 km/h del día 25/04/2021
  • 53 - 33,84 km/h del día 24/04/2021
  • 54 - 28,08 km/h del día 23/04/2021
  • 55 - 25,92 km/h del día 22/04/2021
  • 56 - 33,12 km/h del día 21/04/2021
  • 57 - 34,56 km/h del día 20/04/2021
  • 58 - 23,76 km/h del día 19/04/2021
  • 59 - 31,68 km/h del día 18/04/2021

||Volver al inicio de la página||


Dirección del viento

  • 1 - 1140.34 º 1140,34 del día 31/05/2021
  • 2 - 1178.99 º 1178,99 del día 30/05/2021
  • 3 - 1975.43 º 1975,43 del día 30/04/2021
  • 4 - 1563.03 º 1563,03 del día 29/05/2021
  • 5 - 1838.43 º 1838,43 del día 29/04/2021
  • 6 - 1375.27 º 1375,27 del día 28/05/2021
  • 7 - 1787.55 º 1787,55 del día 28/04/2021
  • 8 - 1629.74 º 1629,74 del día 27/05/2021
  • 9 - 1911.94 º 1911,94 del día 27/04/2021
  • 10 - 947.1 º N del día 26/05/2021
  • 11 - 1679.1 º 1679,1 del día 26/04/2021
  • 12 - 1531.58 º 1531,58 del día 25/05/2021
  • 13 - 1669.27 º 1669,27 del día 25/04/2021
  • 14 - 2055.9 º 2055,9 del día 24/05/2021
  • 15 - 970.5 º N del día 24/04/2021
  • 16 - 1001.17 º 1001,17 del día 23/05/2021
  • 17 - 1037.88 º 1037,88 del día 23/04/2021
  • 18 - 1387.39 º 1387,39 del día 22/05/2021
  • 19 - 927.87 º N del día 22/04/2021
  • 20 - 1350.64 º 1350,64 del día 21/05/2021
  • 21 - 1279.54 º 1279,54 del día 21/04/2021
  • 22 - 1002.53 º 1002,53 del día 20/05/2021
  • 23 - 1214.73 º 1214,73 del día 20/04/2021
  • 24 - 1289.3 º 1289,3 del día 19/05/2021
  • 25 - 2030.65 º 2030,65 del día 19/04/2021
  • 26 - 1493.7 º 1493,7 del día 18/05/2021
  • 27 - 1299.45 º 1299,45 del día 18/04/2021
  • 28 - 1682.44 º 1682,44 del día 17/06/2021
  • 29 - 1609.16 º 1609,16 del día 17/05/2021
  • 30 - 829.4 º N del día 17/04/2021
  • 31 - 1633.47 º 1633,47 del día 16/06/2021
  • 32 - 2213.95 º 2213,95 del día 16/05/2021
  • 33 - 1434.27 º 1434,27 del día 15/06/2021
  • 34 - 2020.26 º 2020,26 del día 15/05/2021
  • 35 - 1658.68 º 1658,68 del día 14/06/2021
  • 36 - 1636.7 º 1636,7 del día 14/05/2021
  • 37 - 1500.93 º 1500,93 del día 13/06/2021
  • 38 - 2047.73 º 2047,73 del día 13/05/2021
  • 39 - 1649.51 º 1649,51 del día 12/06/2021
  • 40 - 2169.19 º 2169,19 del día 12/05/2021
  • 41 - 1526.87 º 1526,87 del día 11/06/2021
  • 42 - 2166.79 º 2166,79 del día 11/05/2021
  • 43 - 1090.83 º 1090,83 del día 10/06/2021
  • 44 - 2066.58 º 2066,58 del día 10/05/2021
  • 45 - 1336.86 º 1336,86 del día 09/06/2021
  • 46 - 1804.26 º 1804,26 del día 09/05/2021
  • 47 - 1306.61 º 1306,61 del día 08/06/2021
  • 48 - 1371.78 º 1371,78 del día 08/05/2021
  • 49 - 1141.87 º 1141,87 del día 07/06/2021
  • 50 - 1785.03 º 1785,03 del día 07/05/2021
  • 51 - 1730.95 º 1730,95 del día 06/06/2021
  • 52 - 1459.91 º 1459,91 del día 06/05/2021
  • 53 - 1440.18 º 1440,18 del día 05/06/2021
  • 54 - 1769.49 º 1769,49 del día 05/05/2021
  • 55 - 1663.6 º 1663,6 del día 04/06/2021
  • 56 - 1566.78 º 1566,78 del día 04/05/2021
  • 57 - 1192.59 º 1192,59 del día 03/06/2021
  • 58 - 1375.61 º 1375,61 del día 03/05/2021
  • 59 - 1544.85 º 1544,85 del día 02/06/2021
  • 60 - 1414.19 º 1414,19 del día 02/05/2021
  • 61 - 1512.72 º 1512,72 del día 01/06/2021
  • 62 - 2171.84 º 2171,84 del día 01/05/2021

|| Temperatura Ambiente|| Humedad relativa|| Precipitación|| Radiación Solar Global y PAR|| Temperatura y humedad del suelo|| Presión atmosférica|| Más información|| Volver a la página principal|| Volver al inicio de la página||


Estación Meteorológica de la Universidad de Murcia
http://estacion.um.es/
Informacion actualizada a: 17/06/2021 a las 21:51:00